User: anonymous   Login
Location: Unspecified
(0.0000°N, 0.0000°E)
Time: 19:24:03
(UTC+00:00)
Language:

Nadezhda 3 - Orbit

View from above orbital plane
View from above orbital plane
View from above satellite
View from above satellite

Ground track
Ground track

The orbit data is extracted from the following two-line orbital elements,

1 21152U 91019A   19077.54213414 +.00000052 +00000-0 +39309-4 0  9994
2 21152 082.9235 107.2675 0040224 251.4830 263.3048 13.74239888404484
Epoch (UTC): 18 March 2019 13:00:40
Eccentricity: 0.0040224
inclination: 82.9235°
perigee height: 955 km
apogee height: 1014 km
right ascension of ascending node: 107.2675°
argument of perigee: 251.4830°
revolutions per day: 13.74239888
mean anomaly at epoch: 263.3048°
orbit number at epoch: 40448

The dashed part of the orbit path shows where the satellite is in the earth's shadow,  

DLR